owner,sensor,date,latitude,longitude,vertical_datum,wind_speed,wind_to_direction,wind_speed_of_gust,qcFlag 
TCOON,ioos:station:TCOON:524:1,2017-08-01T00:00:00Z,29.8672,-93.9310,0.0,1.2,38.0,2.7,'11111222,11111222,11111222' 
TCOON,ioos:station:TCOON:524:1,2017-08-01T00:06:00Z,29.8672,-93.9310,0.0,0.8,54.0,1.5,'11111222,11111222,11111222' 
TCOON,ioos:station:TCOON:524:1,2017-08-01T00:12:00Z,29.8672,-93.9310,0.0,1.4,90.0,2.0,'11111222,11111222,11111222' 
TCOON,ioos:station:TCOON:524:1,2017-08-01T00:18:00Z,29.8672,-93.9310,0.0,1.4,90.0,2.0,'1111122,1111122,1111122' 
TCOON,ioos:station:TCOON:524:1,2017-08-01T00:24:00Z,29.8672,-93.9310,0.0,1.4,153.0,1.9,'11111222,11111222,11111222' 
TCOON,ioos:station:TCOON:524:1,2017-08-01T00:30:00Z,29.8672,-93.9310,0.0,1.1,144.0,2.1,'11111222,11111222,11111222' 
TCOON,ioos:station:TCOON:524:1,2017-08-01T00:36:00Z,29.8672,-93.9310,0.0,1.6,153.0,2.5,'11111222,11111222,11111222' 
TCOON,ioos:station:TCOON:524:1,2017-08-01T00:42:00Z,29.8672,-93.9310,0.0,2.1,155.0,2.9,'11111222,11111222,11111222' 
TCOON,ioos:station:TCOON:524:1,2017-08-01T00:48:00Z,29.8672,-93.9310,0.0,1.9,172.0,2.8,'11111222,11111222,11111222' 
TCOON,ioos:station:TCOON:524:1,2017-08-01T00:54:00Z,29.8672,-93.9310,0.0,1.6,159.0,2.3,'11111222,11111222,11111222' 
TCOON,ioos:station:TCOON:524:1,2017-08-01T01:00:00Z,29.8672,-93.9310,0.0,1.7,162.0,2.4,'11111222,11111222,11111222' 
TCOON,ioos:station:TCOON:524:1,2017-08-01T01:06:00Z,29.8672,-93.9310,0.0,1.6,152.0,2.6,'11111222,11111222,11111222' 
TCOON,ioos:station:TCOON:524:1,2017-08-01T01:12:00Z,29.8672,-93.9310,0.0,1.5,155.0,2.5,'11111222,11111222,11111222' 
TCOON,ioos:station:TCOON:524:1,2017-08-01T01:18:00Z,29.8672,-93.9310,0.0,1.5,155.0,2.5,'1111122,1111122,1111122' 
TCOON,ioos:station:TCOON:524:1,2017-08-01T01:24:00Z,29.8672,-93.9310,0.0,1.4,156.0,1.9,'11111222,11111222,11111222' 
TCOON,ioos:station:TCOON:524:1,2017-08-01T01:30:00Z,29.8672,-93.9310,0.0,1.4,147.0,2.3,'11111222,11111222,11111222' 
TCOON,ioos:station:TCOON:524:1,2017-08-01T01:36:00Z,29.8672,-93.9310,0.0,1.2,150.0,2.3,'11111222,11111222,11111222' 
TCOON,ioos:station:TCOON:524:1,2017-08-01T01:42:00Z,29.8672,-93.9310,0.0,1.5,139.0,2.4,'11111222,11111222,11111222' 
TCOON,ioos:station:TCOON:524:1,2017-08-01T01:48:00Z,29.8672,-93.9310,0.0,1.2,143.0,2.1,'11111222,11111222,11111222' 
TCOON,ioos:station:TCOON:524:1,2017-08-01T01:54:00Z,29.8672,-93.9310,0.0,0.9,145.0,1.3,'11111222,11111222,11111222' 
TCOON,ioos:station:TCOON:524:1,2017-08-01T02:00:00Z,29.8672,-93.9310,0.0,0.5,135.0,1.0,'11111222,11111222,11111222' 
TCOON,ioos:station:TCOON:524:1,2017-08-01T02:06:00Z,29.8672,-93.9310,0.0,0.5,143.0,1.0,'11111222,11111222,11111222' 
TCOON,ioos:station:TCOON:524:1,2017-08-01T02:12:00Z,29.8672,-93.9310,0.0,0.7,138.0,1.3,'11111222,11111222,11111222' 
TCOON,ioos:station:TCOON:524:1,2017-08-01T02:18:00Z,29.8672,-93.9310,0.0,0.7,138.0,1.3,'1111122,1111122,1111122' 
TCOON,ioos:station:TCOON:524:1,2017-08-01T02:24:00Z,29.8672,-93.9310,0.0,0.6,140.0,1.2,'11111222,11111222,11111222' 
TCOON,ioos:station:TCOON:524:1,2017-08-01T02:30:00Z,29.8672,-93.9310,0.0,0.6,135.0,1.0,'11111222,11111222,11111222' 
TCOON,ioos:station:TCOON:524:1,2017-08-01T02:36:00Z,29.8672,-93.9310,0.0,0.7,125.0,0.8,'11111222,11111222,11111222' 
TCOON,ioos:station:TCOON:524:1,2017-08-01T02:42:00Z,29.8672,-93.9310,0.0,0.3,134.0,0.7,'11111222,11111222,11111222' 
TCOON,ioos:station:TCOON:524:1,2017-08-01T02:48:00Z,29.8672,-93.9310,0.0,0.5,126.0,0.7,'11111222,11111222,11111222' 
TCOON,ioos:station:TCOON:524:1,2017-08-01T02:54:00Z,29.8672,-93.9310,0.0,0.4,140.0,0.6,'11111222,11111222,11111222' 
TCOON,ioos:station:TCOON:524:1,2017-08-01T03:00:00Z,29.8672,-93.9310,0.0,0.4,138.0,0.6,'11111222,11111222,11111222' 
TCOON,ioos:station:TCOON:524:1,2017-08-01T03:06:00Z,29.8672,-93.9310,0.0,0.0,143.0,0.5,'11111222,11111222,11111222' 
TCOON,ioos:station:TCOON:524:1,2017-08-01T03:12:00Z,29.8672,-93.9310,0.0,0.0,143.0,0.0,'11111222,11111222,11111222' 
TCOON,ioos:station:TCOON:524:1,2017-08-01T03:18:00Z,29.8672,-93.9310,0.0,0.0,143.0,0.0,'1114422,1111122,1114422' 
TCOON,ioos:station:TCOON:524:1,2017-08-01T03:24:00Z,29.8672,-93.9310,0.0,0.0,143.0,0.0,'11111222,11111222,11111222' 
TCOON,ioos:station:TCOON:524:1,2017-08-01T03:30:00Z,29.8672,-93.9310,0.0,0.0,143.0,0.0,'11111222,11111222,11111222' 
TCOON,ioos:station:TCOON:524:1,2017-08-01T03:36:00Z,29.8672,-93.9310,0.0,0.0,143.0,0.0,'11111222,11111222,11111222' 
TCOON,ioos:station:TCOON:524:1,2017-08-01T03:42:00Z,29.8672,-93.9310,0.0,0.0,142.0,0.0,'11111222,11111222,11111222' 
TCOON,ioos:station:TCOON:524:1,2017-08-01T03:48:00Z,29.8672,-93.9310,0.0,0.6,43.0,0.8,'11111222,11111222,11111222' 
TCOON,ioos:station:TCOON:524:1,2017-08-01T03:54:00Z,29.8672,-93.9310,0.0,0.9,41.0,1.1,'11111222,11111222,11111222' 
TCOON,ioos:station:TCOON:524:1,2017-08-01T04:00:00Z,29.8672,-93.9310,0.0,0.7,30.0,1.1,'11111222,11111222,11111222' 
TCOON,ioos:station:TCOON:524:1,2017-08-01T04:06:00Z,29.8672,-93.9310,0.0,0.7,34.0,0.9,'11111222,11111222,11111222' 
TCOON,ioos:station:TCOON:524:1,2017-08-01T04:12:00Z,29.8672,-93.9310,0.0,0.6,24.0,0.9,'11111222,11111222,11111222' 
TCOON,ioos:station:TCOON:524:1,2017-08-01T04:18:00Z,29.8672,-93.9310,0.0,0.6,24.0,0.9,'1111122,1111122,1111122' 
TCOON,ioos:station:TCOON:524:1,2017-08-01T04:24:00Z,29.8672,-93.9310,0.0,0.7,65.0,1.0,'11111222,11111222,11111222' 
TCOON,ioos:station:TCOON:524:1,2017-08-01T04:30:00Z,29.8672,-93.9310,0.0,0.6,30.0,0.9,'11111222,11111222,11111222' 
TCOON,ioos:station:TCOON:524:1,2017-08-01T04:36:00Z,29.8672,-93.9310,0.0,0.8,48.0,1.2,'11111222,11111222,11111222' 
TCOON,ioos:station:TCOON:524:1,2017-08-01T04:42:00Z,29.8672,-93.9310,0.0,0.8,36.0,1.5,'11111222,11111222,11111222' 
TCOON,ioos:station:TCOON:524:1,2017-08-01T04:48:00Z,29.8672,-93.9310,0.0,0.8,30.0,1.5,'11111222,11111222,11111222' 
TCOON,ioos:station:TCOON:524:1,2017-08-01T04:54:00Z,29.8672,-93.9310,0.0,0.9,35.0,1.5,'11111222,11111222,11111222' 
TCOON,ioos:station:TCOON:524:1,2017-08-01T05:00:00Z,29.8672,-93.9310,0.0,1.0,39.0,1.5,'11111222,11111222,11111222' 
TCOON,ioos:station:TCOON:524:1,2017-08-01T05:06:00Z,29.8672,-93.9310,0.0,0.9,48.0,2.3,'11111222,11111222,11111222' 
TCOON,ioos:station:TCOON:524:1,2017-08-01T05:12:00Z,29.8672,-93.9310,0.0,1.2,38.0,1.8,'11111222,11111222,11111222' 
TCOON,ioos:station:TCOON:524:1,2017-08-01T05:18:00Z,29.8672,-93.9310,0.0,1.2,38.0,1.8,'1111122,1111122,1111122' 
TCOON,ioos:station:TCOON:524:1,2017-08-01T05:24:00Z,29.8672,-93.9310,0.0,1.3,41.0,2.3,'11111222,11111222,11111222' 
TCOON,ioos:station:TCOON:524:1,2017-08-01T05:30:00Z,29.8672,-93.9310,0.0,1.1,41.0,1.8,'11111222,11111222,11111222' 
TCOON,ioos:station:TCOON:524:1,2017-08-01T05:36:00Z,29.8672,-93.9310,0.0,2.3,82.0,3.1,'11111222,11111222,11111222' 
TCOON,ioos:station:TCOON:524:1,2017-08-01T05:42:00Z,29.8672,-93.9310,0.0,2.8,76.0,4.1,'11111222,11111222,11111222' 
TCOON,ioos:station:TCOON:524:1,2017-08-01T05:48:00Z,29.8672,-93.9310,0.0,2.4,84.0,3.8,'11111222,11111222,11111222' 
TCOON,ioos:station:TCOON:524:1,2017-08-01T05:54:00Z,29.8672,-93.9310,0.0,2.0,97.0,3.6,'11111222,11111222,11111222' 
TCOON,ioos:station:TCOON:524:1,2017-08-01T06:00:00Z,29.8672,-93.9310,0.0,2.1,105.0,3.5,'11111222,11111222,11111222' 
TCOON,ioos:station:TCOON:524:1,2017-08-01T06:06:00Z,29.8672,-93.9310,0.0,2.5,112.0,3.9,'11111222,11111222,11111222' 
TCOON,ioos:station:TCOON:524:1,2017-08-01T06:12:00Z,29.8672,-93.9310,0.0,2.9,113.0,4.0,'11111222,11111222,11111222' 
TCOON,ioos:station:TCOON:524:1,2017-08-01T06:18:00Z,29.8672,-93.9310,0.0,2.9,113.0,4.0,'1111122,1111122,1111122' 
TCOON,ioos:station:TCOON:524:1,2017-08-01T06:24:00Z,29.8672,-93.9310,0.0,2.0,120.0,4.0,'11111222,11111222,11111222' 
TCOON,ioos:station:TCOON:524:1,2017-08-01T06:30:00Z,29.8672,-93.9310,0.0,2.5,120.0,4.1,'11111222,11111222,11111222' 
TCOON,ioos:station:TCOON:524:1,2017-08-01T06:36:00Z,29.8672,-93.9310,0.0,2.3,121.0,4.3,'11111222,11111222,11111222' 
TCOON,ioos:station:TCOON:524:1,2017-08-01T06:42:00Z,29.8672,-93.9310,0.0,2.9,113.0,4.5,'11111222,11111222,11111222' 
TCOON,ioos:station:TCOON:524:1,2017-08-01T06:48:00Z,29.8672,-93.9310,0.0,2.6,128.0,4.3,'11111222,11111222,11111222' 
TCOON,ioos:station:TCOON:524:1,2017-08-01T06:54:00Z,29.8672,-93.9310,0.0,2.9,129.0,4.4,'11111222,11111222,11111222' 
TCOON,ioos:station:TCOON:524:1,2017-08-01T07:00:00Z,29.8672,-93.9310,0.0,3.2,121.0,5.5,'11111222,11111222,11111222' 
TCOON,ioos:station:TCOON:524:1,2017-08-01T07:06:00Z,29.8672,-93.9310,0.0,3.5,119.0,5.4,'11111222,11111222,11111222' 
TCOON,ioos:station:TCOON:524:1,2017-08-01T07:12:00Z,29.8672,-93.9310,0.0,3.2,116.0,4.9,'11111222,11111222,11111222' 
TCOON,ioos:station:TCOON:524:1,2017-08-01T07:18:00Z,29.8672,-93.9310,0.0,3.2,116.0,4.9,'1111122,1111122,1111122' 
TCOON,ioos:station:TCOON:524:1,2017-08-01T07:24:00Z,29.8672,-93.9310,0.0,2.5,119.0,3.8,'11111222,11111222,11111222' 
TCOON,ioos:station:TCOON:524:1,2017-08-01T07:30:00Z,29.8672,-93.9310,0.0,2.3,127.0,4.2,'11111222,11111222,11111222' 
TCOON,ioos:station:TCOON:524:1,2017-08-01T07:36:00Z,29.8672,-93.9310,0.0,2.9,120.0,4.4,'11111222,11111222,11111222' 
TCOON,ioos:station:TCOON:524:1,2017-08-01T07:42:00Z,29.8672,-93.9310,0.0,2.1,114.0,3.8,'11111222,11111222,11111222' 
TCOON,ioos:station:TCOON:524:1,2017-08-01T07:48:00Z,29.8672,-93.9310,0.0,3.3,113.0,4.4,'11111222,11111222,11111222' 
TCOON,ioos:station:TCOON:524:1,2017-08-01T07:54:00Z,29.8672,-93.9310,0.0,3.3,108.0,4.7,'11111222,11111222,11111222' 
TCOON,ioos:station:TCOON:524:1,2017-08-01T08:00:00Z,29.8672,-93.9310,0.0,3.7,104.0,5.3,'11111222,11111222,11111222' 
TCOON,ioos:station:TCOON:524:1,2017-08-01T08:06:00Z,29.8672,-93.9310,0.0,3.0,102.0,4.8,'11111222,11111222,11111222' 
TCOON,ioos:station:TCOON:524:1,2017-08-01T08:12:00Z,29.8672,-93.9310,0.0,2.5,96.0,4.1,'11111222,11111222,11111222' 
TCOON,ioos:station:TCOON:524:1,2017-08-01T08:18:00Z,29.8672,-93.9310,0.0,2.5,96.0,4.1,'1111122,1111122,1111122' 
TCOON,ioos:station:TCOON:524:1,2017-08-01T08:24:00Z,29.8672,-93.9310,0.0,2.8,100.0,4.2,'11111222,11111222,11111222' 
TCOON,ioos:station:TCOON:524:1,2017-08-01T08:30:00Z,29.8672,-93.9310,0.0,3.0,95.0,6.1,'11111222,11111222,11111222' 
TCOON,ioos:station:TCOON:524:1,2017-08-01T08:36:00Z,29.8672,-93.9310,0.0,2.4,95.0,5.4,'11111222,11111222,11111222' 
TCOON,ioos:station:TCOON:524:1,2017-08-01T08:42:00Z,29.8672,-93.9310,0.0,2.5,83.0,3.8,'11111222,11111222,11111222' 
TCOON,ioos:station:TCOON:524:1,2017-08-01T08:48:00Z,29.8672,-93.9310,0.0,2.4,91.0,3.9,'11111222,11111222,11111222' 
TCOON,ioos:station:TCOON:524:1,2017-08-01T08:54:00Z,29.8672,-93.9310,0.0,3.2,97.0,5.3,'11111222,11111222,11111222' 
TCOON,ioos:station:TCOON:524:1,2017-08-01T09:00:00Z,29.8672,-93.9310,0.0,4.2,105.0,5.9,'11111222,11111222,11111222' 
TCOON,ioos:station:TCOON:524:1,2017-08-01T09:06:00Z,29.8672,-93.9310,0.0,2.6,100.0,4.6,'11111222,11111222,11111222' 
TCOON,ioos:station:TCOON:524:1,2017-08-01T09:12:00Z,29.8672,-93.9310,0.0,3.5,106.0,5.3,'11111222,11111222,11111222' 
TCOON,ioos:station:TCOON:524:1,2017-08-01T09:18:00Z,29.8672,-93.9310,0.0,3.5,106.0,5.3,'1111122,1111122,1111122' 
TCOON,ioos:station:TCOON:524:1,2017-08-01T09:24:00Z,29.8672,-93.9310,0.0,2.4,99.0,4.3,'11111222,11111222,11111222' 
TCOON,ioos:station:TCOON:524:1,2017-08-01T09:30:00Z,29.8672,-93.9310,0.0,2.1,83.0,3.7,'11111222,11111222,11111222' 
TCOON,ioos:station:TCOON:524:1,2017-08-01T09:36:00Z,29.8672,-93.9310,0.0,3.7,86.0,4.6,'11111222,11111222,11111222' 
TCOON,ioos:station:TCOON:524:1,2017-08-01T09:42:00Z,29.8672,-93.9310,0.0,3.1,92.0,4.6,'11111222,11111222,11111222' 
TCOON,ioos:station:TCOON:524:1,2017-08-01T09:48:00Z,29.8672,-93.9310,0.0,2.9,91.0,5.1,'11111222,11111222,11111222' 
TCOON,ioos:station:TCOON:524:1,2017-08-01T09:54:00Z,29.8672,-93.9310,0.0,3.4,97.0,5.4,'11111222,11111222,11111222' 
TCOON,ioos:station:TCOON:524:1,2017-08-01T10:00:00Z,29.8672,-93.9310,0.0,4.0,122.0,6.0,'11111222,11111222,11111222' 
TCOON,ioos:station:TCOON:524:1,2017-08-01T10:06:00Z,29.8672,-93.9310,0.0,4.5,109.0,6.3,'11111222,11111222,11111222' 
TCOON,ioos:station:TCOON:524:1,2017-08-01T10:12:00Z,29.8672,-93.9310,0.0,3.6,115.0,6.3,'11111222,11111222,11111222' 
TCOON,ioos:station:TCOON:524:1,2017-08-01T10:18:00Z,29.8672,-93.9310,0.0,3.6,115.0,6.3,'1111122,1111122,1111122' 
TCOON,ioos:station:TCOON:524:1,2017-08-01T10:24:00Z,29.8672,-93.9310,0.0,4.2,107.0,5.7,'11111222,11111222,11111222' 
TCOON,ioos:station:TCOON:524:1,2017-08-01T10:30:00Z,29.8672,-93.9310,0.0,3.6,100.0,5.6,'11111222,11111222,11111222' 
TCOON,ioos:station:TCOON:524:1,2017-08-01T10:36:00Z,29.8672,-93.9310,0.0,4.5,102.0,7.4,'11111222,11111222,11111222' 
TCOON,ioos:station:TCOON:524:1,2017-08-01T10:42:00Z,29.8672,-93.9310,0.0,2.8,97.0,4.8,'11111222,11111222,11111222' 
TCOON,ioos:station:TCOON:524:1,2017-08-01T10:48:00Z,29.8672,-93.9310,0.0,2.8,88.0,4.3,'11111222,11111222,11111222' 
TCOON,ioos:station:TCOON:524:1,2017-08-01T10:54:00Z,29.8672,-93.9310,0.0,2.6,85.0,4.8,'11111222,11111222,11111222' 
TCOON,ioos:station:TCOON:524:1,2017-08-01T11:00:00Z,29.8672,-93.9310,0.0,2.3,90.0,4.1,'11111222,11111222,11111222' 
TCOON,ioos:station:TCOON:524:1,2017-08-01T11:06:00Z,29.8672,-93.9310,0.0,1.8,86.0,4.2,'11111222,11111222,11111222' 
TCOON,ioos:station:TCOON:524:1,2017-08-01T11:12:00Z,29.8672,-93.9310,0.0,2.0,80.0,3.2,'11111222,11111222,11111222' 
TCOON,ioos:station:TCOON:524:1,2017-08-01T11:18:00Z,29.8672,-93.9310,0.0,2.0,80.0,3.2,'1111122,1111122,1111122' 
TCOON,ioos:station:TCOON:524:1,2017-08-01T11:24:00Z,29.8672,-93.9310,0.0,2.1,67.0,3.4,'11111222,11111222,11111222' 
TCOON,ioos:station:TCOON:524:1,2017-08-01T11:30:00Z,29.8672,-93.9310,0.0,0.9,40.0,3.3,'11111222,11111222,11111222' 
TCOON,ioos:station:TCOON:524:1,2017-08-01T11:36:00Z,29.8672,-93.9310,0.0,1.9,31.0,3.3,'11111222,11111222,11111222' 
TCOON,ioos:station:TCOON:524:1,2017-08-01T11:42:00Z,29.8672,-93.9310,0.0,2.0,37.0,3.0,'11111222,11111222,11111222' 
TCOON,ioos:station:TCOON:524:1,2017-08-01T11:48:00Z,29.8672,-93.9310,0.0,1.3,50.0,2.7,'11111222,11111222,11111222' 
TCOON,ioos:station:TCOON:524:1,2017-08-01T11:54:00Z,29.8672,-93.9310,0.0,1.6,40.0,2.5,'11111222,11111222,11111222' 
TCOON,ioos:station:TCOON:524:1,2017-08-01T12:00:00Z,29.8672,-93.9310,0.0,1.3,42.0,3.4,'11111222,11111222,11111222' 
TCOON,ioos:station:TCOON:524:1,2017-08-01T12:06:00Z,29.8672,-93.9310,0.0,1.3,43.0,2.4,'11111222,11111222,11111222' 
TCOON,ioos:station:TCOON:524:1,2017-08-01T12:12:00Z,29.8672,-93.9310,0.0,1.9,33.0,2.9,'11111222,11111222,11111222' 
TCOON,ioos:station:TCOON:524:1,2017-08-01T12:18:00Z,29.8672,-93.9310,0.0,1.9,33.0,2.9,'1111122,1111122,1111122' 
TCOON,ioos:station:TCOON:524:1,2017-08-01T12:24:00Z,29.8672,-93.9310,0.0,1.1,40.0,2.2,'11111222,11111222,11111222' 
TCOON,ioos:station:TCOON:524:1,2017-08-01T12:30:00Z,29.8672,-93.9310,0.0,1.3,38.0,2.3,'11111222,11111222,11111222' 
TCOON,ioos:station:TCOON:524:1,2017-08-01T12:36:00Z,29.8672,-93.9310,0.0,1.6,44.0,3.0,'11111222,11111222,11111222' 
TCOON,ioos:station:TCOON:524:1,2017-08-01T12:42:00Z,29.8672,-93.9310,0.0,1.3,51.0,2.9,'11111222,11111222,11111222' 
TCOON,ioos:station:TCOON:524:1,2017-08-01T12:48:00Z,29.8672,-93.9310,0.0,1.6,54.0,2.9,'11111222,11111222,11111222' 
TCOON,ioos:station:TCOON:524:1,2017-08-01T12:54:00Z,29.8672,-93.9310,0.0,2.5,74.0,3.9,'11111222,11111222,11111222' 
TCOON,ioos:station:TCOON:524:1,2017-08-01T13:00:00Z,29.8672,-93.9310,0.0,3.0,74.0,4.9,'11111222,11111222,11111222' 
TCOON,ioos:station:TCOON:524:1,2017-08-01T13:06:00Z,29.8672,-93.9310,0.0,2.9,67.0,4.5,'11111222,11111222,11111222' 
TCOON,ioos:station:TCOON:524:1,2017-08-01T13:12:00Z,29.8672,-93.9310,0.0,3.2,75.0,5.3,'11111222,11111222,11111222' 
TCOON,ioos:station:TCOON:524:1,2017-08-01T13:18:00Z,29.8672,-93.9310,0.0,3.2,75.0,5.3,'1111122,1111122,1111122' 
TCOON,ioos:station:TCOON:524:1,2017-08-01T13:24:00Z,29.8672,-93.9310,0.0,2.6,71.0,4.7,'11111222,11111222,11111222' 
TCOON,ioos:station:TCOON:524:1,2017-08-01T13:30:00Z,29.8672,-93.9310,0.0,2.1,71.0,3.8,'11111222,11111222,11111222' 
TCOON,ioos:station:TCOON:524:1,2017-08-01T13:36:00Z,29.8672,-93.9310,0.0,2.3,74.0,6.0,'11111222,11111222,11111222' 
TCOON,ioos:station:TCOON:524:1,2017-08-01T13:42:00Z,29.8672,-93.9310,0.0,2.4,65.0,4.8,'11111222,11111222,11111222' 
TCOON,ioos:station:TCOON:524:1,2017-08-01T13:48:00Z,29.8672,-93.9310,0.0,1.9,70.0,4.2,'11111222,11111222,11111222' 
TCOON,ioos:station:TCOON:524:1,2017-08-01T13:54:00Z,29.8672,-93.9310,0.0,3.2,71.0,5.2,'11111222,11111222,11111222' 
TCOON,ioos:station:TCOON:524:1,2017-08-01T14:00:00Z,29.8672,-93.9310,0.0,3.0,77.0,4.0,'11111222,11111222,11111222' 
TCOON,ioos:station:TCOON:524:1,2017-08-01T14:06:00Z,29.8672,-93.9310,0.0,4.5,73.0,6.0,'11111222,11111222,11111222' 
TCOON,ioos:station:TCOON:524:1,2017-08-01T14:12:00Z,29.8672,-93.9310,0.0,2.7,71.0,5.6,'11111222,11111222,11111222' 
TCOON,ioos:station:TCOON:524:1,2017-08-01T14:18:00Z,29.8672,-93.9310,0.0,2.7,71.0,5.6,'1111122,1111122,1111122' 
TCOON,ioos:station:TCOON:524:1,2017-08-01T14:24:00Z,29.8672,-93.9310,0.0,3.7,76.0,5.9,'11111222,11111222,11111222' 
TCOON,ioos:station:TCOON:524:1,2017-08-01T14:30:00Z,29.8672,-93.9310,0.0,2.8,77.0,5.0,'11111222,11111222,11111222' 
TCOON,ioos:station:TCOON:524:1,2017-08-01T14:36:00Z,29.8672,-93.9310,0.0,3.5,77.0,4.7,'11111222,11111222,11111222' 
TCOON,ioos:station:TCOON:524:1,2017-08-01T14:42:00Z,29.8672,-93.9310,0.0,3.5,66.0,5.6,'11111222,11111222,11111222' 
TCOON,ioos:station:TCOON:524:1,2017-08-01T14:48:00Z,29.8672,-93.9310,0.0,2.9,71.0,5.5,'11111222,11111222,11111222' 
TCOON,ioos:station:TCOON:524:1,2017-08-01T14:54:00Z,29.8672,-93.9310,0.0,3.4,80.0,6.6,'11111222,11111222,11111222' 
TCOON,ioos:station:TCOON:524:1,2017-08-01T15:00:00Z,29.8672,-93.9310,0.0,3.5,76.0,5.2,'11111222,11111222,11111222' 
TCOON,ioos:station:TCOON:524:1,2017-08-01T15:06:00Z,29.8672,-93.9310,0.0,3.1,83.0,5.1,'11111222,11111222,11111222' 
TCOON,ioos:station:TCOON:524:1,2017-08-01T15:12:00Z,29.8672,-93.9310,0.0,3.4,86.0,5.2,'11111222,11111222,11111222' 
TCOON,ioos:station:TCOON:524:1,2017-08-01T15:18:00Z,29.8672,-93.9310,0.0,3.4,86.0,5.2,'1111122,1111122,1111122' 
TCOON,ioos:station:TCOON:524:1,2017-08-01T15:24:00Z,29.8672,-93.9310,0.0,2.9,77.0,4.5,'11111222,11111222,11111222' 
TCOON,ioos:station:TCOON:524:1,2017-08-01T15:30:00Z,29.8672,-93.9310,0.0,3.2,89.0,5.1,'11111222,11111222,11111222' 
TCOON,ioos:station:TCOON:524:1,2017-08-01T15:36:00Z,29.8672,-93.9310,0.0,3.5,85.0,4.8,'11111222,11111222,11111222' 
TCOON,ioos:station:TCOON:524:1,2017-08-01T15:42:00Z,29.8672,-93.9310,0.0,3.4,90.0,5.7,'11111222,11111222,11111222' 
TCOON,ioos:station:TCOON:524:1,2017-08-01T15:48:00Z,29.8672,-93.9310,0.0,3.3,96.0,4.9,'11111222,11111222,11111222' 
TCOON,ioos:station:TCOON:524:1,2017-08-01T15:54:00Z,29.8672,-93.9310,0.0,3.5,91.0,4.8,'11111222,11111222,11111222' 
TCOON,ioos:station:TCOON:524:1,2017-08-01T16:00:00Z,29.8672,-93.9310,0.0,3.5,86.0,4.8,'11111222,11111222,11111222' 
TCOON,ioos:station:TCOON:524:1,2017-08-01T16:06:00Z,29.8672,-93.9310,0.0,3.3,84.0,4.8,'11111222,11111222,11111222' 
TCOON,ioos:station:TCOON:524:1,2017-08-01T16:12:00Z,29.8672,-93.9310,0.0,2.9,96.0,4.5,'11111222,11111222,11111222' 
TCOON,ioos:station:TCOON:524:1,2017-08-01T16:18:00Z,29.8672,-93.9310,0.0,2.9,96.0,4.5,'1111122,1111122,1111122' 
TCOON,ioos:station:TCOON:524:1,2017-08-01T16:24:00Z,29.8672,-93.9310,0.0,3.4,85.0,4.2,'11111222,11111222,11111222' 
TCOON,ioos:station:TCOON:524:1,2017-08-01T16:30:00Z,29.8672,-93.9310,0.0,2.9,80.0,4.1,'11111222,11111222,11111222' 
TCOON,ioos:station:TCOON:524:1,2017-08-01T16:36:00Z,29.8672,-93.9310,0.0,2.9,80.0,5.0,'11111222,11111222,11111222' 
TCOON,ioos:station:TCOON:524:1,2017-08-01T16:42:00Z,29.8672,-93.9310,0.0,3.0,80.0,4.0,'11111222,11111222,11111222' 
TCOON,ioos:station:TCOON:524:1,2017-08-01T16:48:00Z,29.8672,-93.9310,0.0,2.5,83.0,4.9,'11111222,11111222,11111222' 
TCOON,ioos:station:TCOON:524:1,2017-08-01T16:54:00Z,29.8672,-93.9310,0.0,3.5,75.0,5.1,'11111222,11111222,11111222' 
TCOON,ioos:station:TCOON:524:1,2017-08-01T17:00:00Z,29.8672,-93.9310,0.0,3.5,102.0,4.6,'11111222,11111222,11111222' 
TCOON,ioos:station:TCOON:524:1,2017-08-01T17:06:00Z,29.8672,-93.9310,0.0,2.5,87.0,5.6,'11111222,11111222,11111222' 
TCOON,ioos:station:TCOON:524:1,2017-08-01T17:12:00Z,29.8672,-93.9310,0.0,2.2,100.0,5.5,'11111222,11111222,11111222' 
TCOON,ioos:station:TCOON:524:1,2017-08-01T17:18:00Z,29.8672,-93.9310,0.0,2.2,100.0,5.5,'1111122,1111122,1111122' 
TCOON,ioos:station:TCOON:524:1,2017-08-01T17:24:00Z,29.8672,-93.9310,0.0,2.8,107.0,4.9,'11111222,11111222,11111222' 
TCOON,ioos:station:TCOON:524:1,2017-08-01T17:30:00Z,29.8672,-93.9310,0.0,3.8,113.0,5.0,'11111222,11111222,11111222' 
TCOON,ioos:station:TCOON:524:1,2017-08-01T17:36:00Z,29.8672,-93.9310,0.0,4.2,105.0,5.6,'11111222,11111222,11111222' 
TCOON,ioos:station:TCOON:524:1,2017-08-01T17:42:00Z,29.8672,-93.9310,0.0,3.5,111.0,5.3,'11111222,11111222,11111222' 
TCOON,ioos:station:TCOON:524:1,2017-08-01T17:48:00Z,29.8672,-93.9310,0.0,3.2,118.0,5.4,'11111222,11111222,11111222' 
TCOON,ioos:station:TCOON:524:1,2017-08-01T17:54:00Z,29.8672,-93.9310,0.0,2.9,112.0,5.0,'11111222,11111222,11111222' 
TCOON,ioos:station:TCOON:524:1,2017-08-01T18:00:00Z,29.8672,-93.9310,0.0,3.9,114.0,4.8,'11111222,11111222,11111222' 
TCOON,ioos:station:TCOON:524:1,2017-08-01T18:06:00Z,29.8672,-93.9310,0.0,2.9,121.0,5.4,'11111222,11111222,11111222' 
TCOON,ioos:station:TCOON:524:1,2017-08-01T18:12:00Z,29.8672,-93.9310,0.0,2.8,116.0,4.5,'11111222,11111222,11111222' 
TCOON,ioos:station:TCOON:524:1,2017-08-01T18:18:00Z,29.8672,-93.9310,0.0,3.5,104.0,5.2,'11111222,11111222,11111222' 
TCOON,ioos:station:TCOON:524:1,2017-08-01T18:24:00Z,29.8672,-93.9310,0.0,3.1,113.0,4.5,'11111222,11111222,11111222' 
TCOON,ioos:station:TCOON:524:1,2017-08-01T18:30:00Z,29.8672,-93.9310,0.0,2.9,110.0,4.7,'11111222,11111222,11111222' 
TCOON,ioos:station:TCOON:524:1,2017-08-01T18:36:00Z,29.8672,-93.9310,0.0,2.9,109.0,3.9,'11111222,11111222,11111222' 
TCOON,ioos:station:TCOON:524:1,2017-08-01T18:42:00Z,29.8672,-93.9310,0.0,2.9,106.0,4.0,'11111222,11111222,11111222' 
TCOON,ioos:station:TCOON:524:1,2017-08-01T18:48:00Z,29.8672,-93.9310,0.0,2.5,108.0,4.0,'11111222,11111222,11111222' 
TCOON,ioos:station:TCOON:524:1,2017-08-01T18:54:00Z,29.8672,-93.9310,0.0,3.0,108.0,3.8,'11111222,11111222,11111222' 
TCOON,ioos:station:TCOON:524:1,2017-08-01T19:00:00Z,29.8672,-93.9310,0.0,2.8,93.0,4.0,'11111222,11111222,11111222' 
TCOON,ioos:station:TCOON:524:1,2017-08-01T19:06:00Z,29.8672,-93.9310,0.0,2.8,91.0,4.4,'11111222,11111222,11111222' 
TCOON,ioos:station:TCOON:524:1,2017-08-01T19:12:00Z,29.8672,-93.9310,0.0,1.6,100.0,3.1,'11111222,11111222,11111222' 
TCOON,ioos:station:TCOON:524:1,2017-08-01T19:18:00Z,29.8672,-93.9310,0.0,2.8,111.0,3.5,'11111222,11111222,11111222' 
TCOON,ioos:station:TCOON:524:1,2017-08-01T19:24:00Z,29.8672,-93.9310,0.0,2.6,100.0,3.5,'11111222,11111222,11111222' 
TCOON,ioos:station:TCOON:524:1,2017-08-01T19:30:00Z,29.8672,-93.9310,0.0,2.6,100.0,3.5,'1111122,1111122,1111122' 
TCOON,ioos:station:TCOON:524:1,2017-08-01T19:36:00Z,29.8672,-93.9310,0.0,1.8,111.0,2.5,'11111222,11111222,11111222' 
TCOON,ioos:station:TCOON:524:1,2017-08-01T19:42:00Z,29.8672,-93.9310,0.0,1.5,116.0,2.6,'11111222,11111222,11111222' 
TCOON,ioos:station:TCOON:524:1,2017-08-01T19:48:00Z,29.8672,-93.9310,0.0,1.6,114.0,2.2,'11111222,11111222,11111222' 
TCOON,ioos:station:TCOON:524:1,2017-08-01T19:54:00Z,29.8672,-93.9310,0.0,2.0,122.0,3.1,'11111222,11111222,11111222' 
TCOON,ioos:station:TCOON:524:1,2017-08-01T20:00:00Z,29.8672,-93.9310,0.0,3.0,108.0,3.9,'11111222,11111222,11111222' 
TCOON,ioos:station:TCOON:524:1,2017-08-01T20:06:00Z,29.8672,-93.9310,0.0,2.2,108.0,3.5,'11111222,11111222,11111222' 
TCOON,ioos:station:TCOON:524:1,2017-08-01T20:12:00Z,29.8672,-93.9310,0.0,2.4,107.0,3.8,'11111222,11111222,11111222' 
TCOON,ioos:station:TCOON:524:1,2017-08-01T20:18:00Z,29.8672,-93.9310,0.0,2.5,98.0,3.5,'11111222,11111222,11111222' 
TCOON,ioos:station:TCOON:524:1,2017-08-01T20:24:00Z,29.8672,-93.9310,0.0,2.5,98.0,3.5,'1111122,1111122,1111122' 